T 2003 June 29.5921 TT MPC q 2.101765 (2000.0) P Q n 0.0113266 Peri. 302.6820 +0.5808137 +0.8134993 a 19.636771 Node 356.6902 +0.8050241 -0.5793943 e 0.892968 Incl. 149.1943 -0.1207955 +0.0502102 P 87.0 >From 158 observations 2003 Sept. 2-Nov. 23.
m1 = 13.5 + 5 logΔ + 10.0 log r [ ,415] ( 〜2004年 8月17日) m1 = 3.8 + 5 logΔ + 20 log r [415, ] (2004年 8月17日〜 )